Weather History for KUNO - April, 2014

Change the Weather History Date:

Tuesday, April 1, 2014

  Actual Average Record
Temperature  
Mean Temperature 58 °F 53 °F  
Max Temperature 72 °F 65 °F 86 °F (2012)
Min Temperature 44 °F 41 °F 22 °F (1954)
Degree Days  
Heating Degree Days 7 12  
Month to date heating degree days 7 12  
Since 1 July heating degree days 4507 4022  
Cooling Degree Days 0 0  
Month to date cooling degree days 0 0  
Year to date cooling degree days 0 4  
Growing Degree Days 8 (Base 50)    
Moisture  
Dew Point 41 °F    
Average Humidity 59    
Maximum Humidity 93    
Minimum Humidity 24    
Precipitation  
Precipitation 0.00 in 0.16 in 0.92 in (1983)
Month to date precipitation 0.00 0.16  
Year to date precipitation 5.07 10.01  
Sea Level Pressure  
Sea Level Pressure 29.99 in    
Wind  
Wind Speed 7 mph (SW)    
Max Wind Speed 15 mph    
Max Gust Speed 22 mph    
Visibility 10 miles    
Events      
T = Trace of Precipitation, MM = Missing Value Source: NWS Daily Summary

Daily Weather History Graph

Daily Weather History Graph

Search for Another Location

Airport or City:

Trip Planner

Search our weather history database for the weather conditions in past years. The results will help you decide how hot, cold, wet, or windy it might be!

Date:

Astronomy

Apr. 01, 2014 Rise Set
Actual Time 6:53 AM CDT 7:30 PM CDT
Civil Twilight 6:27 AM CDT 7:56 PM CDT
Nautical Twilight 5:56 AM CDT 8:27 PM CDT
Astronomical Twilight 5:25 AM CDT 8:58 PM CDT
Moon 7:59 AM CDT (4/1) 9:49 PM CDT (4/1)
Length of Visible Light 13h 28m
Length of Day
12h 36m
Waxing Crescent, 5% of the Moon is Illuminated
Apr 1
Waxing Crescent
Apr 7
First Quarter
Apr 15
Full
Apr 22
Last Quarter
Apr 29
New

Hourly Weather History & Observations

Time (CDT) Temp. Windchill Dew Point Humidity Pressure Visibility Wind Dir Wind Speed Gust Speed Precip Events Conditions
12:53 AM 50.0 °F - 43.0 °F 77% 29.98 in 10.0 mi WSW 4.6 mph - N/A   Clear
1:53 AM 48.9 °F - 43.0 °F 80% 29.98 in 10.0 mi West 5.8 mph - N/A   Clear
2:53 AM 46.9 °F - 43.0 °F 86% 29.99 in 10.0 mi WSW 4.6 mph - N/A   Clear
3:53 AM 48.9 °F - 45.0 °F 86% 29.99 in 9.0 mi West 6.9 mph - N/A   Clear
4:53 AM 50.0 °F - 41.0 °F 71% 29.99 in 10.0 mi NNW 6.9 mph - N/A   Clear
5:53 AM 48.0 °F - 39.0 °F 71% 30.01 in 10.0 mi NW 5.8 mph - N/A   Clear
6:53 AM 45.0 °F 41.2 °F 34.0 °F 65% 30.03 in 10.0 mi NW 6.9 mph - N/A   Clear
7:53 AM 46.0 °F 43.9 °F 30.9 °F 56% 30.07 in 10.0 mi WNW 4.6 mph - N/A   Clear
8:53 AM 50.0 °F - 30.0 °F 46% 30.06 in 10.0 mi North 5.8 mph - N/A   Clear
9:53 AM 54.0 °F - 28.9 °F 38% 30.08 in 10.0 mi North 5.8 mph - N/A   Scattered Clouds
10:53 AM 57.9 °F - 28.9 °F 33% 30.08 in 10.0 mi Variable 6.9 mph - N/A   Mostly Cloudy
11:53 AM 61.0 °F - 30.0 °F 31% 30.07 in 10.0 mi NNE 8.1 mph - N/A   Scattered Clouds
12:53 PM 64.9 °F - 28.9 °F 26% 30.05 in 10.0 mi Variable 5.8 mph - N/A   Clear
1:53 PM 66.0 °F - 28.9 °F 25% 30.03 in 10.0 mi South 6.9 mph - N/A   Overcast
2:53 PM 68.0 °F - 36.0 °F 31% 29.99 in 10.0 mi Variable 6.9 mph - N/A   Mostly Cloudy
3:53 PM 70.0 °F - 37.9 °F 31% 29.96 in 10.0 mi Variable 3.5 mph - N/A   Partly Cloudy
4:53 PM 72.0 °F - 42.1 °F 34% 29.95 in 10.0 mi SSE 11.5 mph - N/A   Clear
5:53 PM 71.1 °F - 46.0 °F 41% 29.94 in 10.0 mi South 5.8 mph - N/A   Overcast
6:53 PM 70.0 °F - 48.9 °F 47% 29.93 in 10.0 mi SSE 8.1 mph - N/A   Partly Cloudy
7:53 PM 68.0 °F - 53.1 °F 59% 29.93 in 10.0 mi SE 6.9 mph - N/A   Mostly Cloudy
8:53 PM 64.9 °F - 57.0 °F 75% 29.94 in 9.0 mi SSE 11.5 mph 18.4 mph N/A   Partly Cloudy
9:53 PM 63.0 °F - 55.9 °F 78% 29.94 in 10.0 mi SSE 11.5 mph - N/A   Clear
10:53 PM 60.1 °F - 55.0 °F 83% 29.94 in 9.0 mi South 8.1 mph - N/A   Clear
11:53 PM 57.9 °F - 55.0 °F 90% 29.94 in 7.0 mi South 4.6 mph - N/A   Clear